Wind_Speed
16 15 14 14 15 16 17 18 18 19 20 20 21 22 24 27 28 30 30 32 32 32 32 31 30 30 29 29 29 28 27 26 24 23 22 21 21 20 20 20 19 19 19
18 16 16 15 16 17 18 19 20 20 20 21 21 21 23 26 28 29 29 30 32 32 32 31 31 30 30 29 30 29 29 28 27 25 24 24 23 22 21 21 21 20 20
20 19 18 18 18 19 20 20 21 21 22 22 23 24 24 25 27 27 28 30 31 31 31 31 31 30 29 29 29 29 29 28 28 27 26 25 24 24 23 23 22 21 20
20 21 21 21 21 21 21 21 21 21 21 22 23 24 24 25 26 27 27 28 30 30 30 30 30 29 29 28 28 29 30 29 28 27 26 25 25 24 24 23 22 21 21
21 22 22 22 22 22 22 22 21 21 21 21 22 23 23 23 24 25 26 27 28 29 29 29 28 28 27 27 28 29 29 28 27 26 25 25 25 25 24 24 23 22 22
23 24 24 24 24 24 24 23 23 22 22 21 22 22 23 23 23 24 25 26 27 28 28 28 28 28 28 28 28 28 28 28 26 25 24 24 25 25 24 24 24 23 23
26 26 26 25 25 25 25 24 24 24 23 23 23 23 23 24 23 23 24 25 26 27 27 27 28 29 29 28 28 28 28 27 26 25 24 24 25 25 24 24 24 24 24
26 26 26 25 25 25 26 25 25 25 25 25 25 24 24 25 25 25 25 25 26 27 28 29 29 31 30 30 29 29 30 29 27 26 26 25 24 24 24 24 24 24 26
25 25 25 25 25 25 26 26 26 26 26 26 25 25 26 26 26 26 26 26 26 26 27 28 30 31 31 31 31 31 32 31 30 29 28 27 26 26 25 25 24 24 25
24 24 25 26 26 27 27 28 28 28 28 28 27 27 27 27 27 27 26 26 26 26 26 28 29 30 31 32 32 32 33 34 34 33 31 30 29 28 27 27 27 27 27
24 25 26 27 27 28 29 30 30 30 30 29 29 28 28 28 27 27 27 26 25 25 25 26 28 30 31 32 33 33 33 34 35 36 35 33 31 30 29 29 30 30 30
23 23 24 25 26 27 28 29 30 30 30 30 29 29 28 28 28 28 27 26 26 25 25 25 26 28 30 32 32 32 32 34 35 36 36 34 33 33 32 32 32 32 31
20 20 21 22 23 25 26 28 29 29 29 29 29 29 28 27 27 27 27 26 26 25 25 25 26 27 28 29 30 30 29 31 33 34 34 35 35 35 35 34 33 33 32
18 18 19 19 20 21 23 24 25 26 27 28 27 26 26 24 24 25 25 25 25 24 24 24 25 26 27 28 29 30 28 27 28 30 32 33 34 35 35 35 36 35 34
16 16 16 16 17 17 16 16 17 19 20 21 22 21 20 21 21 22 23 23 23 23 23 23 23 23 25 25 25 25 25 26 28 30 31 32 33 34 35 36 36 36 36
15 15 14 14 14 14 12 9 7 7 10 12 14 16 17 18 19 20 21 21 20 21 21 22 21 21 21 21 22 23 24 25 27 30 31 32 33 34 34 35 36 36 36
13 13 12 12 13 12 11 8 4 1 4 6 9 12 13 14 15 17 17 18 18 19 20 20 20 19 19 19 20 21 22 24 26 28 29 31 31 32 32 33 34 35 36
11 11 11 12 12 12 11 9 6 4 3 5 6 8 10 11 13 14 15 16 17 17 18 19 19 20 20 21 22 23 24 26 26 27 27 28 29 30 30 31 32 33 35
10 9 10 11 11 11 11 9 7 5 3 2 4 5 7 9 10 12 13 14 15 16 17 18 20 21 22 23 24 25 27 28 28 29 29 29 29 29 30 31 31 32 34
9 9 9 9 10 10 10 9 7 6 4 2 1 2 4 6 7 9 11 12 13 14 16 17 19 20 21 22 24 25 27 29 30 31 31 32 32 31 31 32 32 33 33
9 9 8 8 9 9 9 8 7 6 4 3 1 0 2 4 6 8 9 11 12 13 14 15 16 17 19 20 22 23 25 27 28 29 30 31 32 32 32 32 32 33 33
10 9 9 9 8 8 8 8 7 6 5 4 3 1 1 1 3 4 6 8 10 11 12 14 15 16 18 19 20 21 22 22 24 25 27 28 30 31 32 32 32 32 33
10 10 10 9 9 8 8 8 7 7 6 4 3 2 2 2 2 3 4 6 8 9 11 12 13 14 15 15 16 16 16 17 18 19 21 23 25 27 29 31 32 33 33
11 11 10 10 10 10 10 10 9 9 8 7 6 5 4 4 4 3 4 5 6 7 9 9 10 10 11 12 13 13 13 14 14 14 16 18 20 22 24 26 28 30 32
11 11 12 12 12 13 13 13 13 13 12 12 11 10 9 8 7 6 6 5 6 6 6 7 8 9 10 11 11 11 11 11 11 12 13 15 17 19 21 22 24 26 28
12 13 13 14 15 15 15 16 16 16 16 15 14 14 13 12 11 10 9 8 8 8 8 8 8 9 10 10 10 11 11 11 11 11 12 13 14 17 19 20 21 23 24
Wind_Direction
281 284 287 286 283 280 278 275 273 271 270 266 261 259 250 241 237 233 232 231 232 233 234 234 234 236 238 241 242 243 247 249 252 253 253 251 251 254 257 258 259 259 256
276 279 284 287 287 285 283 280 277 273 269 266 261 259 252 244 240 238 237 238 237 237 237 236 235 236 238 240 242 243 245 248 250 253 254 254 252 253 255 256 257 257 255
273 276 280 283 285 285 284 282 279 275 270 264 261 258 256 248 243 243 241 240 240 239 238 237 237 236 237 239 241 241 243 246 249 252 254 254 251 251 252 253 254 255 256
275 278 280 281 281 281 281 281 278 275 271 266 262 260 259 254 247 242 242 243 241 240 238 238 237 236 237 239 241 241 241 244 248 249 252 253 252 250 249 250 253 255 258
285 285 284 282 279 278 277 277 276 273 270 267 263 259 258 256 249 245 243 244 243 240 238 238 235 235 237 239 240 239 240 242 245 248 251 252 249 247 247 249 251 254 259
293 292 289 286 281 278 275 274 273 270 268 267 263 259 257 255 252 247 244 245 244 242 241 240 238 237 238 238 238 238 238 240 243 246 248 249 248 248 248 247 249 254 259
293 292 290 287 282 279 276 275 272 269 266 263 261 257 255 254 254 251 248 247 246 245 243 241 241 240 239 240 239 238 239 240 242 245 246 247 248 248 246 247 250 253 256
292 290 288 285 282 278 276 274 271 268 265 263 258 255 253 251 251 250 249 249 250 248 246 244 243 241 240 240 240 241 240 240 242 243 243 242 243 245 248 250 250 252 253
294 292 289 286 282 278 275 273 270 269 266 263 259 254 252 250 248 248 249 249 250 250 248 246 245 243 241 240 240 241 241 241 241 242 240 241 242 246 249 249 249 253 254
296 294 292 288 284 280 276 273 272 269 266 263 259 254 251 249 248 247 247 248 248 248 247 245 244 244 242 241 241 242 243 241 240 239 239 240 242 244 247 250 251 254 255
298 295 292 288 285 281 277 274 271 268 265 261 258 254 250 247 246 246 245 246 246 246 246 246 246 245 244 243 242 243 244 244 241 238 237 238 241 244 247 250 253 255 256
302 299 295 291 287 283 279 275 271 267 263 259 257 254 250 247 245 245 244 244 245 243 244 247 249 248 247 245 244 243 242 242 240 236 235 237 240 244 247 250 253 256 257
308 304 301 296 291 286 282 276 271 266 260 257 254 253 250 246 244 242 241 241 242 242 244 249 252 252 249 249 248 246 243 238 238 236 236 239 241 245 249 252 254 257 258
316 313 311 307 301 296 288 280 270 263 257 253 249 247 244 241 239 237 236 237 239 242 244 249 254 255 254 255 253 250 246 241 241 242 242 244 247 249 252 254 256 256 256
327 325 323 320 317 312 303 290 275 262 255 247 243 239 232 232 232 231 231 233 237 240 244 249 254 256 256 255 254 251 250 247 245 246 247 249 250 252 254 256 257 256 255
333 332 333 335 338 338 333 321 295 260 241 230 224 222 222 224 225 226 227 230 233 239 243 248 251 253 255 255 254 254 254 253 252 251 251 251 252 255 256 257 257 257 256
337 339 345 351 358 3 5 11 21 96 182 191 198 204 209 212 217 220 223 228 234 240 244 248 251 254 257 258 258 258 257 256 256 255 255 255 254 255 255 256 256 255 255
343 350 357 3 9 15 21 28 41 68 122 158 177 189 199 207 214 220 226 233 239 244 247 250 253 256 259 260 262 262 262 261 259 258 257 256 255 254 254 254 255 254 253
349 356 2 8 13 17 22 27 34 47 73 131 173 192 204 213 219 225 232 239 246 250 254 256 259 262 264 265 266 266 265 264 262 260 258 257 256 255 254 254 252 251 251
355 359 2 6 11 15 19 23 28 35 43 59 130 197 213 222 228 233 239 247 253 257 260 263 265 268 269 269 270 270 268 267 265 262 259 256 254 253 252 250 251 249 249
4 6 6 5 5 8 10 14 18 23 29 35 42 207 235 240 242 245 249 254 258 262 266 269 272 274 274 275 276 275 274 270 266 263 260 256 253 250 249 249 248 248 249
11 10 9 7 6 6 7 8 13 17 22 29 35 35 358 274 261 258 258 260 264 269 272 275 277 279 281 282 283 283 281 276 270 264 260 257 253 250 248 248 247 247 250
18 18 17 16 17 16 17 19 22 25 28 31 31 28 8 336 310 292 282 279 280 281 285 289 290 290 290 290 289 288 286 283 276 268 261 257 252 250 248 248 248 248 250
29 30 32 35 37 38 40 42 43 46 48 48 47 42 33 21 7 346 328 316 307 301 299 301 305 304 302 300 298 296 292 288 284 276 266 258 255 254 252 252 252 252 252
41 45 48 51 53 54 56 56 56 55 55 54 53 50 46 41 34 26 14 1 350 336 328 323 320 318 315 313 311 308 306 301 293 284 275 268 263 260 259 260 260 258 257
54 57 59 61 62 62 62 61 60 59 59 58 57 55 54 52 48 44 40 34 26 16 5 356 347 339 334 329 324 319 314 309 302 293 286 281 276 272 269 268 266 264 262
Height
5778 5777 5776 5776 5775 5775 5775 5775 5775 5775 5775 5776 5777 5778 5779 5781 5783 5786 5789 5793 5796 5799 5803 5806 5809 5812 5814 5817 5819 5822 5824 5826 5828 5830 5831 5833 5834 5836 5837 5838 5839 5840 5841
5774 5773 5772 5771 5770 5770 5770 5769 5770 5770 5770 5770 5771 5772 5773 5775 5777 5780 5783 5786 5789 5792 5795 5798 5801 5804 5807 5810 5812 5815 5817 5819 5821 5823 5825 5826 5828 5830 5831 5832 5833 5835 5836
5768 5767 5766 5766 5765 5765 5764 5764 5764 5764 5764 5765 5766 5767 5768 5769 5771 5774 5776 5779 5782 5785 5788 5791 5794 5797 5800 5803 5805 5808 5810 5812 5815 5817 5818 5820 5822 5824 5825 5826 5828 5829 5830
5762 5761 5760 5760 5759 5758 5758 5757 5757 5758 5758 5759 5759 5760 5762 5763 5765 5767 5769 5772 5775 5778 5781 5784 5787 5790 5793 5795 5798 5801 5803 5806 5808 5810 5812 5813 5815 5817 5819 5821 5822 5824 5825
5756 5755 5754 5753 5752 5751 5751 5751 5751 5751 5752 5752 5753 5754 5755 5757 5758 5760 5763 5765 5768 5771 5774 5777 5780 5783 5785 5788 5791 5794 5796 5799 5802 5804 5806 5807 5808 5810 5813 5815 5816 5818 5819
5749 5748 5747 5746 5745 5744 5744 5744 5744 5745 5745 5746 5747 5748 5749 5751 5752 5754 5756 5759 5761 5764 5767 5770 5773 5776 5779 5781 5784 5787 5790 5793 5796 5798 5799 5800 5802 5804 5807 5809 5810 5812 5813
5743 5741 5739 5738 5737 5737 5736 5737 5737 5738 5738 5740 5740 5742 5743 5745 5746 5748 5750 5752 5755 5757 5760 5763 5766 5769 5771 5774 5777 5780 5783 5786 5789 5791 5793 5794 5796 5798 5800 5803 5804 5805 5807
5735 5733 5731 5730 5729 5729 5729 5729 5729 5730 5731 5732 5734 5735 5737 5738 5740 5742 5744 5746 5748 5751 5753 5756 5759 5762 5765 5767 5770 5773 5776 5779 5782 5784 5786 5788 5790 5792 5794 5796 5798 5799 5800
5728 5726 5724 5723 5722 5721 5721 5721 5721 5722 5723 5724 5726 5728 5730 5731 5734 5736 5738 5740 5742 5744 5746 5749 5752 5754 5757 5760 5763 5766 5768 5771 5774 5776 5779 5781 5783 5785 5787 5789 5791 5792 5793
5721 5719 5717 5715 5714 5713 5713 5713 5713 5714 5715 5716 5718 5720 5722 5724 5726 5729 5731 5733 5735 5737 5739 5742 5744 5747 5750 5752 5755 5757 5760 5763 5766 5769 5771 5774 5776 5778 5780 5782 5784 5785 5786
5714 5712 5709 5707 5705 5704 5704 5703 5704 5704 5706 5707 5709 5711 5713 5716 5719 5721 5724 5726 5729 5731 5733 5735 5737 5739 5742 5744 5746 5748 5751 5754 5756 5760 5763 5766 5769 5771 5773 5775 5776 5777 5779
5708 5705 5702 5700 5697 5695 5694 5693 5694 5694 5695 5697 5699 5702 5704 5707 5710 5713 5716 5719 5722 5724 5726 5728 5730 5732 5734 5736 5737 5740 5742 5745 5747 5751 5754 5757 5760 5763 5765 5766 5767 5769 5771
5702 5699 5696 5693 5690 5687 5685 5684 5683 5684 5685 5687 5690 5692 5695 5699 5702 5705 5709 5712 5715 5717 5720 5722 5724 5725 5726 5728 5729 5731 5734 5736 5739 5742 5745 5748 5751 5754 5756 5758 5759 5761 5762
5697 5694 5690 5687 5684 5680 5677 5675 5673 5674 5675 5677 5680 5684 5687 5691 5695 5698 5702 5705 5708 5711 5713 5716 5717 5718 5720 5721 5723 5724 5726 5729 5731 5735 5737 5740 5742 5745 5747 5749 5751 5752 5754
5694 5690 5687 5683 5679 5674 5670 5667 5665 5666 5667 5670 5673 5677 5681 5685 5689 5693 5696 5700 5703 5706 5708 5710 5711 5712 5714 5715 5716 5718 5720 5722 5725 5727 5730 5732 5734 5736 5738 5740 5741 5743 5745
5692 5688 5685 5681 5676 5671 5667 5664 5662 5662 5663 5665 5669 5673 5677 5681 5684 5688 5691 5695 5698 5700 5702 5704 5706 5707 5708 5710 5711 5712 5714 5716 5718 5720 5722 5724 5726 5727 5729 5730 5732 5734 5735
5691 5688 5684 5680 5676 5672 5668 5665 5663 5663 5663 5665 5668 5671 5674 5678 5681 5684 5687 5690 5693 5695 5697 5699 5701 5702 5703 5704 5705 5706 5708 5709 5710 5712 5714 5715 5717 5718 5720 5721 5722 5724 5725
5690 5687 5684 5681 5678 5674 5671 5668 5667 5666 5666 5667 5669 5671 5674 5676 5679 5682 5685 5687 5689 5691 5693 5695 5696 5697 5698 5699 5699 5700 5701 5702 5703 5704 5705 5706 5708 5709 5711 5712 5713 5714 5716
5690 5688 5685 5682 5680 5677 5674 5672 5670 5669 5669 5670 5671 5672 5674 5676 5678 5680 5682 5684 5686 5688 5689 5690 5691 5691 5692 5692 5693 5693 5693 5693 5694 5695 5696 5698 5699 5700 5702 5703 5704 5706 5707
5691 5688 5686 5684 5682 5679 5677 5675 5674 5673 5672 5672 5672 5673 5674 5676 5677 5679 5680 5682 5683 5684 5685 5685 5686 5686 5686 5685 5685 5685 5685 5684 5685 5685 5687 5688 5690 5691 5693 5694 5696 5697 5699
5691 5689 5687 5685 5683 5681 5680 5678 5676 5675 5674 5674 5674 5674 5675 5675 5676 5677 5678 5679 5680 5680 5681 5681 5681 5680 5680 5679 5678 5677 5676 5675 5675 5676 5677 5678 5680 5682 5683 5685 5687 5689 5690
5692 5690 5688 5686 5685 5683 5681 5679 5678 5677 5676 5675 5675 5675 5675 5675 5675 5676 5676 5677 5677 5677 5677 5677 5676 5676 5675 5673 5672 5670 5669 5667 5667 5667 5667 5668 5670 5672 5674 5676 5678 5679 5681
5694 5692 5690 5688 5686 5684 5683 5681 5679 5678 5677 5676 5675 5675 5675 5675 5675 5675 5675 5675 5675 5674 5674 5673 5672 5671 5670 5668 5667 5665 5663 5662 5661 5660 5660 5661 5662 5663 5665 5667 5669 5671 5672
5696 5694 5692 5690 5688 5686 5685 5683 5682 5680 5679 5678 5677 5676 5676 5675 5675 5674 5674 5673 5673 5672 5671 5670 5669 5668 5666 5665 5663 5661 5659 5658 5656 5655 5655 5655 5656 5657 5658 5659 5660 5662 5663
5699 5697 5695 5693 5691 5689 5687 5686 5684 5683 5681 5680 5679 5678 5677 5676 5675 5674 5673 5673 5672 5671 5670 5668 5667 5665 5664 5662 5660 5658 5656 5655 5653 5652 5652 5651 5651 5652 5652 5653 5653 5654 5655
5702 5700 5698 5696 5694 5693 5691 5690 5688 5686 5685 5683 5682 5680 5679 5678 5677 5675 5674 5673 5672 5670 5669 5667 5666 5664 5662 5660 5658 5656 5654 5652 5651 5650 5649 5648 5647 5647 5647 5647 5647 5647 5647